User: anonymous   Login
Location: Long Point Provincial Park
(42.5794°N, 80.4103°W)
Time: 19:08:25
(UTC-04:00)
Language:

Iridium 19 - Orbit

View from above orbital plane
View from above orbital plane
View from above satellite
View from above satellite

Ground track
Ground track

The orbit data is extracted from the following two-line orbital elements,

1 24965U 97056A   14297.34014239  .00000568  00000-0  19584-3 0  9889
2 24965 086.3989 002.8414 0002287 109.5122 250.6321 14.34221382893974
Epoch (UTC): 24 October 2014 08:09:48
Eccentricity: 0.0002287
inclination: 86.3989°
perigee height: 776 km
apogee height: 779 km
right ascension of ascending node: 2.8414°
argument of perigee: 109.5122°
revolutions per day: 14.34221382
mean anomaly at epoch: 250.6321°
orbit number at epoch: 89397

The dashed part of the orbit path shows where the satellite is in the earth's shadow,  

DLR